CW1459 Weather Reports


time (UTC)temp
F
wind
direction
speed
knots
gust
knots
rain 1hr
in
rain 24hr
in
rain mn
in
humidity
%
barometer
mb
20220124172315 34 180 4.3 7.8 0.00 0.00 0.00 54 1009.2
20220124171320 33 233 0.0 7.0 0.00 0.00 0.00 54 1009.6
20220124170318 33 240 3.5 6.1 0.00 0.00 0.00 55 1009.9
20220124165314 33 213 0.9 6.1 0.00 0.00 0.00 54 1010.1
20220124164335 32 228 0.0 0.9 0.00 0.00 0.00 55 1010.3
20220124163319 32 246 0.0 2.6 0.00 0.00 0.00 56 1010.6
20220124162316 32 205 0.0 2.6 0.00 0.00 0.00 55 1010.7
20220124161314 31 327 0.0 4.3 0.00 0.00 0.00 56 1010.8
20220124160331 31 333 2.6 4.3 0.00 0.00 0.00 56 1010.9
20220124155323 31 331 3.5 5.2 0.00 0.00 0.00 57 1011.0
20220124154337 29 45 0.0 6.1 0.00 0.00 0.00 57 1010.9
20220124153323 30 344 3.5 7.8 0.00 0.00 0.00 59 1010.9
20220124152313 29 9 1.7 7.8 0.00 0.00 0.00 60 1011.2
20220124151321 29 21 0.0 3.5 0.00 0.00 0.00 60 1011.0
20220124150319 28 57 0.9 7.8 0.00 0.00 0.00 60 1011.3
20220124145328 28 36 0.9 4.3 0.00 0.00 0.00 62 1011.4
20220124144313 28 58 0.0 0.0 0.00 0.00 0.00 61 1011.6
20220124143328 27 19 0.9 6.1 0.00 0.00 0.00 63 1011.7
20220124142313 27 5 0.0 6.1 0.00 0.00 0.00 63 1011.9
20220124141313 27 360 0.0 5.2 0.00 0.00 0.00 63 1011.9
20220124140331 27 5 0.0 7.8 0.00 0.00 0.00 64 1012.0
20220124135319 27 16 0.0 5.2 0.00 0.00 0.00 64 1011.9
20220124134315 26 5 0.0 7.0 0.00 0.00 0.00 64 1012.0
20220124133316 26 331 0.0 2.6 0.00 0.00 0.00 65 1012.0
20220124132316 25 17 0.0 2.6 0.00 0.00 0.00 66 1012.0
20220124131327 25 27 0.0 0.0 0.00 0.00 0.00 66 1012.0
20220124130319 25 323 0.0 2.6 0.00 0.00 0.00 65 1012.0
20220124125334 26 328 4.3 8.7 0.00 0.00 0.00 64 1011.8
20220124124318 25 317 0.9 3.5 0.00 0.00 0.00 65 1012.2
20220124123336 26 342 0.0 3.5 0.00 0.00 0.00 65 1012.1
20220124122337 26 309 4.3 10.4 0.00 0.00 0.00 64 1011.9
20220124121322 27 342 3.5 8.7 0.00 0.00 0.00 64 1011.9
20220124120318 27 324 0.0 7.8 0.00 0.00 0.00 64 1011.9
20220124115313 28 307 0.0 8.7 0.00 0.00 0.00 65 1011.7
20220124114318 28 313 0.0 11.3 0.00 0.00 0.00 65 1011.6
20220124113316 28 306 0.0 8.7 0.00 0.00 0.00 67 1011.4
20220124112334 28 321 0.9 7.8 0.00 0.00 0.00 69 1011.3
20220124111325 28 313 0.0 0.0 0.00 0.00 0.00 71 1011.2
20220124110338 27 332 0.0 0.0 0.00 0.00 0.00 72 1011.0
20220124105314 28 332 0.0 0.0 0.00 0.00 0.00 72 1010.9
20220124104318 27 332 0.0 0.0 0.00 0.00 0.00 72 1010.8
20220124103315 27 332 0.0 0.0 0.00 0.00 0.00 72 1010.5
20220124102314 27 332 0.0 0.0 0.00 0.00 0.00 72 1010.4
20220124101326 27 332 0.0 0.0 0.00 0.00 0.00 71 1010.5
20220124100313 27 332 0.0 0.0 0.00 0.00 0.00 70 1010.4
20220124095327 27 332 0.0 0.0 0.00 0.00 0.00 70 1010.1
20220124094314 27 17 0.0 0.0 0.00 0.00 0.00 68 1009.9
20220124093331 28 18 0.0 0.0 0.00 0.00 0.00 68 1010.1
20220124092336 28 51 0.0 0.9 0.00 0.00 0.00 67 1009.8
20220124091325 28 345 0.0 1.7 0.00 0.00 0.00 67 1009.6
20220124090313 28 351 0.0 5.2 0.00 0.00 0.00 66 1009.5
20220124085322 29 332 0.0 5.2 0.00 0.00 0.00 65 1009.6
20220124084322 29 346 0.9 5.2 0.00 0.00 0.00 65 1009.7
20220124083313 29 326 0.0 3.5 0.00 0.00 0.00 64 1009.6
20220124082315 29 16 0.0 4.3 0.00 0.00 0.00 63 1009.3
20220124081317 30 5 0.0 8.7 0.00 0.00 0.00 64 1009.1
20220124080315 30 335 0.9 9.6 0.00 0.00 0.00 63 1009.1
20220124075320 30 334 0.9 13.9 0.00 0.00 0.00 64 1008.9
20220124074324 30 342 4.3 11.3 0.00 0.00 0.00 68 1008.7
20220124073313 31 331 0.0 12.2 0.00 0.00 0.00 70 1008.6
20220124072319 31 340 0.0 7.0 0.00 0.00 0.00 72 1008.6
20220124071316 31 351 4.3 12.2 0.00 0.00 0.00 72 1008.5
20220124070323 31 9 4.3 10.4 0.00 0.00 0.00 72 1008.3
20220124065339 32 331 3.5 8.7 0.00 0.00 0.00 71 1008.1
20220124064317 32 313 5.2 9.6 0.00 0.00 0.00 72 1007.9
20220124063321 32 347 0.9 4.3 0.00 0.00 0.00 74 1007.6
20220124062324 32 351 0.0 0.0 0.00 0.00 0.00 73 1007.4
20220124061312 32 338 0.0 0.0 0.00 0.00 0.00 74 1007.5
20220124060320 32 328 0.0 0.9 0.00 0.00 0.00 74 1007.5
20220124055319 32 331 0.0 0.9 0.00 0.00 0.00 74 1007.5
20220124054314 33 329 0.0 0.9 0.00 0.00 0.00 73 1007.6
20220124053320 33 323 0.0 2.6 0.00 0.00 0.00 73 1007.7
20220124052317 33 322 0.0 1.7 0.00 0.00 0.00 72 1007.6
20220124051314 33 323 0.9 4.3 0.00 0.00 0.00 72 1007.4
20220124050312 33 343 0.0 5.2 0.00 0.00 0.00 72 1007.1
20220124045316 33 351 0.0 2.6 0.00 0.00 0.00 71 1007.1
20220124044335 34 329 0.0 7.8 0.00 0.00 0.00 71 1007.5
20220124043321 34 284 0.0 3.5 0.00 0.00 0.00 71 1007.4
20220124042315 34 327 0.9 4.3 0.00 0.00 0.00 70 1007.5
20220124041319 34 296 0.9 10.4 0.00 0.00 0.00 69 1007.6
20220124040331 34 292 2.6 9.6 0.00 0.00 0.00 69 1007.5
20220124035315 34 302 0.0 7.8 0.00 0.00 0.00 70 1007.5
20220124034329 34 278 0.0 7.0 0.00 0.00 0.00 69 1007.4
20220124033338 34 283 0.0 6.1 0.00 0.00 0.00 69 1007.3
20220124032328 34 279 0.0 3.5 0.00 0.00 0.00 70 1007.2
20220124031313 34 298 0.0 0.0 0.00 0.00 0.00 69 1007.2
20220124030331 34 312 0.0 5.2 0.00 0.00 0.00 68 1007.1
20220124025317 34 301 1.7 4.3 0.00 0.00 0.00 67 1007.0
20220124024329 35 290 0.9 3.5 0.00 0.00 0.00 66 1007.0
20220124023318 35 290 0.0 4.3 0.00 0.00 0.00 64 1006.9
20220124022315 35 295 0.0 0.9 0.00 0.00 0.00 64 1006.9
20220124021329 35 267 0.0 5.2 0.00 0.00 0.00 63 1007.0
20220124020338 35 267 0.9 7.0 0.00 0.00 0.00 63 1007.0
20220124015313 35 286 0.9 7.0 0.00 0.00 0.00 61 1006.9
20220124014329 35 260 0.0 7.0 0.00 0.00 0.00 60 1006.9
20220124013316 35 274 0.0 0.9 0.00 0.00 0.00 59 1006.7
20220124012314 34 204 0.0 0.0 0.00 0.00 0.00 59 1006.7
20220124011318 34 198 0.0 0.0 0.00 0.00 0.00 57 1006.6
20220124010316 35 189 0.0 4.3 0.00 0.00 0.00 57 1006.5
20220124005314 35 195 0.0 0.9 0.00 0.00 0.00 57 1006.5
20220124004331 34 190 0.0 2.6 0.00 0.00 0.00 58 1006.4
20220124003312 34 174 0.0 0.0 0.00 0.00 0.00 58 1006.4
20220124002314 35 174 0.0 0.0 0.00 0.00 0.00 58 1006.3
20220124001331 35 168 0.0 1.7 0.00 0.00 0.00 58 1006.3
20220124000318 34 174 0.0 7.0 0.00 0.00 0.00 57 1006.2
20220123235314 34 202 0.0 0.9 0.00 0.00 0.00 57 1006.3
20220123234329 34 207 0.0 1.7 0.00 0.00 0.00 57 1006.4
20220123233316 34 186 0.0 4.3 0.00 0.00 0.00 56 1006.3
20220123232327 34 175 1.7 8.7 0.00 0.00 0.00 57 1006.2
20220123231312 34 189 0.9 6.1 0.00 0.00 0.00 56 1006.1
20220123230329 34 167 2.6 6.1 0.00 0.00 0.00 56 1006.0
20220123225317 34 174 0.0 4.3 0.00 0.00 0.00 55 1005.9
20220123224313 34 161 0.0 4.3 0.00 0.00 0.00 55 1005.9
20220123223315 34 190 0.0 7.8 0.00 0.00 0.00 55 1005.7
20220123222328 34 158 0.9 8.7 0.00 0.00 0.00 55 1005.5
20220123221315 34 172 2.6 9.6 0.00 0.00 0.00 55 1005.5
20220123220313 34 157 0.9 8.7 0.00 0.00 0.00 55 1005.5
20220123215328 34 178 0.9 8.7 0.00 0.00 0.00 55 1005.7
20220123214316 34 163 1.7 7.8 0.00 0.00 0.00 54 1005.8
20220123213324 34 209 1.7 7.0 0.00 0.00 0.00 54 1005.8
20220123212314 35 175 3.5 8.7 0.00 0.00 0.00 53 1005.9
20220123211312 35 184 0.9 6.1 0.00 0.00 0.00 52 1006.0
20220123210321 35 169 2.6 11.3 0.00 0.00 0.00 52 1005.9
20220123205316 35 158 1.7 7.8 0.00 0.00 0.00 51 1006.0
20220123204316 35 184 4.3 9.6 0.00 0.00 0.00 51 1006.1
20220123203312 35 171 1.7 7.0 0.00 0.00 0.00 51 1006.1
20220123202323 35 169 3.5 9.6 0.00 0.00 0.00 50 1006.2
20220123201334 35 194 2.6 7.8 0.00 0.00 0.00 50 1006.2
20220123200315 35 169 1.7 8.7 0.00 0.00 0.00 51 1006.3
20220123195331 35 163 3.5 7.8 0.00 0.00 0.00 51 1006.6
20220123194327 34 148 0.0 10.4 0.00 0.00 0.00 51 1006.8
20220123193315 34 178 0.0 7.0 0.00 0.00 0.00 51 1007.1
20220123192319 35 190 1.7 7.8 0.00 0.00 0.00 50 1007.1
20220123191316 34 240 0.9 8.7 0.00 0.00 0.00 50 1007.2
20220123190314 34 179 3.5 8.7 0.00 0.00 0.00 49 1007.2
20220123185312 34 200 1.7 9.6 0.00 0.00 0.00 49 1007.4
20220123184311 35 192 0.9 6.1 0.00 0.00 0.00 50 1007.5
20220123183321 35 194 0.0 7.0 0.00 0.00 0.00 50 1007.8
20220123182334 35 230 5.2 9.6 0.00 0.00 0.00 50 1008.1
20220123181328 35 209 0.9 7.8 0.00 0.00 0.00 50 1008.1
20220123180314 35 167 1.7 8.7 0.00 0.00 0.00 50 1008.4
20220123175321 35 203 3.5 9.6 0.00 0.00 0.00 50 1008.5
20220123174318 35 214 2.6 11.3 0.00 0.00 0.00 51 1008.6